Tri-Cities, TN

9:42 AM EDT on April 26, 2017 (GMT -0400)
Tri-Cities Regional Tennessee / Virginia

Weather History for KTRI - October, 2010

Change the Weather History Date:

Friday, October 8, 2010

  Actual Average Record
Temperature  
Mean Temperature 60 °F 59 °F  
Max Temperature 77 °F 72 °F 88 °F (2007)
Min Temperature 42 °F 46 °F 27 °F (2000)
Degree Days  
Heating Degree Days 5 7  
Month to date heating degree days 87 47  
Since 1 July heating degree days 101 100  
Cooling Degree Days 0 1  
Month to date cooling degree days 0 8  
Year to date cooling degree days 1451 976  
Growing Degree Days 8 (Base 50)    
Moisture  
Dew Point 44 °F    
Average Humidity 61    
Maximum Humidity 96    
Minimum Humidity 25    
Precipitation  
Precipitation 0.00 in 0.07 in 0.85 in (1940)
Month to date precipitation 0.03 0.55  
Year to date precipitation 27.57 32.99  
Snow  
Snow 0.00 in 0.00 in - ()
Month to date snowfall 0.0 0.0  
Since 1 July snowfall 0.0 0.0  
Since 1 September snowfall 0.0 0.0  
Snow Depth 0.00 in    
Sea Level Pressure  
Sea Level Pressure 30.10 in    
Wind  
Wind Speed 1 mph (WSW)    
Max Wind Speed 8 mph    
Max Gust Speed 13 mph    
Visibility 7 miles    
Events Fog    
T = Trace of Precipitation, MM = Missing Value Source: NWS Daily Summary

Daily Weather History Graph

Daily Weather History Graph

Search for Another Location

Airport or City:

Trip Planner

Search our weather history database for the weather conditions in past years. The results will help you decide how hot, cold, wet, or windy it might be!

Date:

Astronomy

Oct. 08, 2010 Rise Set
Actual Time 7:30 AM EDT 7:03 PM EDT
Civil Twilight 7:04 AM EDT 7:28 PM EDT
Nautical Twilight 6:35 AM EDT 7:58 PM EDT
Astronomical Twilight 6:05 AM EDT 8:28 PM EDT
Moon 8:31 AM EDT (10/8) 7:21 PM EDT (10/8)
Length of Visible Light 12h 23m
Length of Day
11h 32m
New Moon, 1% of the Moon is Illuminated
Oct 8
New Moon
Oct 14
First Quarter
Oct 22
Full
Oct 30
Last Quarter
Nov 6
New

Hourly Weather History & Observations

Time (EDT) Temp. Dew Point Humidity Pressure Visibility Wind Dir Wind Speed Gust Speed Precip Events Conditions
12:53 AM 50.0 °F 46.9 °F 89% 30.07 in 10.0 mi Calm Calm - N/A   Clear
1:53 AM 48.0 °F 46.0 °F 93% 30.08 in 7.0 mi Calm Calm - N/A   Clear
2:53 AM 46.9 °F 45.0 °F 93% 30.09 in 7.0 mi Calm Calm - N/A   Clear
3:53 AM 44.1 °F 43.0 °F 96% 30.09 in 6.0 mi Calm Calm - N/A   Clear
4:53 AM 45.0 °F 43.0 °F 93% 30.08 in 6.0 mi Calm Calm - N/A   Partly Cloudy
5:53 AM 46.0 °F 43.0 °F 89% 30.09 in 6.0 mi Calm Calm - N/A   Partly Cloudy
6:13 AM 42.8 °F 42.8 °F 100% 30.15 in 0.5 mi Calm Calm - N/A Fog Fog
6:23 AM 44.6 °F 42.8 °F 93% 30.15 in 0.2 mi Calm Calm - N/A Fog Fog
6:45 AM 42.8 °F 41.0 °F 93% 30.15 in 1.2 mi Calm Calm - N/A   Mostly Cloudy
6:53 AM 44.1 °F 42.1 °F 93% 30.11 in 1.0 mi Calm Calm - N/A   Mostly Cloudy
7:46 AM 42.8 °F 41.0 °F 93% 30.16 in 0.1 mi Calm Calm - N/A Fog Fog
7:53 AM 42.1 °F 41.0 °F 96% 30.13 in 0.1 mi Calm Calm - N/A Fog Fog
8:09 AM 44.6 °F 42.8 °F 93% 30.16 in 1.5 mi Calm Calm - N/A   Scattered Clouds
8:24 AM 46.4 °F 44.6 °F 93% 30.17 in 3.0 mi Calm Calm - N/A   Partly Cloudy
8:53 AM 48.0 °F 46.0 °F 93% 30.14 in 6.0 mi Calm Calm - N/A   Scattered Clouds
9:53 AM 54.0 °F 48.9 °F 83% 30.14 in 9.0 mi Calm Calm - N/A   Clear
10:53 AM 59.0 °F 51.1 °F 75% 30.15 in 10.0 mi Calm Calm - N/A   Clear
11:53 AM 64.9 °F 51.1 °F 61% 30.13 in 10.0 mi Calm Calm - N/A   Clear
12:53 PM 71.1 °F 34.0 °F 26% 30.11 in 10.0 mi Calm Calm - N/A   Clear
1:53 PM 73.0 °F 42.1 °F 33% 30.09 in 10.0 mi WSW 6.9 mph - N/A   Clear
2:53 PM 73.9 °F 43.0 °F 33% 30.06 in 10.0 mi West 6.9 mph - N/A   Clear
3:53 PM 75.9 °F 41.0 °F 29% 30.05 in 10.0 mi West 4.6 mph - N/A   Clear
4:53 PM 75.0 °F 39.0 °F 27% 30.04 in 10.0 mi WSW 5.8 mph - N/A   Clear
5:53 PM 75.0 °F 41.0 °F 29% 30.04 in 10.0 mi SW 3.5 mph - N/A   Clear
6:53 PM 70.0 °F 46.0 °F 42% 30.05 in 10.0 mi Calm Calm - N/A   Clear
7:53 PM 59.0 °F 46.0 °F 62% 30.06 in 9.0 mi Calm Calm - N/A   Clear
8:53 PM 55.9 °F 46.9 °F 72% 30.07 in 10.0 mi Calm Calm - N/A   Clear
9:53 PM 52.0 °F 46.0 °F 80% 30.08 in 10.0 mi Calm Calm - N/A   Clear
10:53 PM 50.0 °F 46.0 °F 86% 30.08 in 10.0 mi Calm Calm - N/A   Clear
11:53 PM 50.0 °F 46.0 °F 86% 30.08 in 10.0 mi Calm Calm - N/A   Clear